EW5506 Weather Reports


Display with metric or nautical units.
time (UTC)temp
F
wind
direction
speed
MPH
gust
MPH
rain 1hr
in
rain 24hr
in
rain mn
in
humidity
%
barometer
mb
20260507153109 61 24 2.0 8.0 0.00 0.13 0.02 64 1014.6
20260507151556 61 5 3.0 9.0 0.00 0.13 0.02 65 1014.6
20260507150002 61 5 2.0 8.0 0.00 0.13 0.02 65 1014.6
20260507144600 63 348 3.0 9.0 0.00 0.14 0.02 63 1014.7
20260507144508 63 355 3.0 9.0 0.00 0.14 0.02 64 1014.7
20260507143056 62 5 3.0 11.0 0.00 0.14 0.02 66 1014.6
20260507141517 62 42 3.0 11.0 0.00 0.14 0.02 66 1014.7
20260507140014 62 40 3.0 12.0 0.00 0.14 0.02 68 1014.7
20260507134523 62 26 4.0 11.0 0.00 0.15 0.02 69 1014.8
20260507133109 61 44 4.0 14.0 0.00 0.15 0.02 68 1014.8
20260507131543 61 24 5.0 12.0 0.00 0.15 0.02 70 1014.8
20260507130108 62 330 4.0 12.0 0.00 0.15 0.02 54 1014.9
20260507124547 63 217 5.0 14.0 0.00 0.17 0.02 57 1014.9
20260507123129 62 258 9.0 12.0 0.00 0.17 0.02 51 1014.9
20260507121555 62 254 6.0 15.0 0.00 0.17 0.02 57 1014.9
20260507120004 62 290 6.0 11.0 0.00 0.17 0.02 58 1014.8
20260507114554 61 246 9.0 12.0 0.00 0.23 0.02 57 1014.9
20260507113006 60 212 10.0 16.0 0.00 0.23 0.02 62 1014.9
20260507111557 61 232 4.0 13.0 0.00 0.23 0.02 62 1014.9
20260507110014 59 246 9.0 14.0 0.00 0.23 0.02 63 1015.0
20260507104515 60 271 6.0 14.0 0.00 0.26 0.02 68 1015.0
20260507103049 58 221 5.0 12.0 0.00 0.26 0.02 70 1015.1
20260507101525 57 292 4.0 11.0 0.00 0.26 0.02 72 1015.2
20260507094533 58 236 7.0 13.0 0.00 0.26 0.02 74 1015.2
20260507093051 56 227 8.0 15.0 0.00 0.26 0.02 75 1015.3
20260507091522 56 310 6.0 12.0 0.00 0.26 0.02 78 1015.3
20260507090055 55 242 4.0 12.0 0.00 0.26 0.02 81 1015.2
20260507084516 54 298 7.0 14.0 0.00 0.26 0.02 81 1015.1
20260507083042 54 251 4.0 13.0 0.00 0.26 0.02 85 1015.0
20260507081511 53 227 6.0 13.0 0.00 0.26 0.02 86 1015.0
20260507080042 53 243 9.0 12.0 0.00 0.26 0.02 87 1015.0
20260507074515 52 259 6.0 12.0 0.00 0.26 0.02 89 1014.9
20260507073007 51 223 7.0 13.0 0.00 0.26 0.02 90 1014.8
20260507071551 51 222 8.0 12.0 0.00 0.26 0.02 91 1014.8
20260507070118 51 222 4.0 9.0 0.00 0.26 0.02 92 1014.6
20260507064625 50 237 5.0 9.0 0.00 0.26 0.02 92 1014.6
20260507063131 50 232 5.0 9.0 0.00 0.26 0.02 92 1014.5
20260507061537 50 215 6.0 11.0 0.00 0.26 0.02 92 1014.4
20260507060116 49 215 6.0 11.0 0.00 0.26 0.02 93 1014.2
20260507054528 49 238 6.0 10.0 0.00 0.26 0.02 93 1014.2
20260507053108 49 215 5.0 10.0 0.00 0.26 0.02 93 1014.1
20260507051540 49 232 5.0 10.0 0.00 0.26 0.02 93 1013.9
20260507050107 49 202 4.0 8.0 0.00 0.26 0.02 93 1013.8
20260507044534 49 240 4.0 8.0 0.00 0.26 0.02 93 1013.6
20260507043058 49 235 4.0 8.0 0.00 0.26 0.02 93 1013.4
20260507041529 49 230 4.0 8.0 0.00 0.26 0.02 93 1013.3
20260507040052 49 215 3.0 8.0 0.00 0.26 0.02 93 1013.3
20260507034529 49 235 5.0 10.0 0.00 0.26 0.02 93 1013.2
20260507033056 49 242 5.0 12.0 0.00 0.26 0.02 93 1013.1
20260507031534 49 225 5.0 9.0 0.00 0.26 0.02 93 1013.0
20260507030057 49 218 4.0 9.0 0.00 0.26 0.02 93 1012.9
20260507024530 49 242 3.0 6.0 0.00 0.26 0.02 93 1012.9
20260507023100 49 234 5.0 9.0 0.00 0.26 0.02 93 1012.9
20260507021531 49 212 5.0 10.0 0.01 0.26 0.02 93 1012.8
20260507020119 49 228 7.0 10.0 0.01 0.26 0.02 93 1012.6
20260507014532 49 248 6.0 9.0 0.01 0.26 0.02 93 1012.4
20260507013104 49 243 6.0 11.0 0.01 0.26 0.02 93 1012.4
20260507011540 49 247 5.0 9.0 0.01 0.25 0.02 93 1012.4
20260507010118 49 245 5.0 10.0 0.01 0.25 0.02 93 1012.4
20260507004536 48 238 6.0 10.0 0.01 0.25 0.02 93 1012.3
20260507003106 48 228 5.0 10.0 0.01 0.25 0.02 93 1012.3
20260507001534 48 211 5.0 9.0 0.01 0.24 0.01 93 1012.2
20260507000104 48 240 5.0 8.0 0.01 0.24 0.01 93 1012.2
20260506234531 48 241 4.0 9.0 0.01 0.24 0.01 93 1012.3
20260506233108 48 216 3.0 7.0 0.01 0.24 0.01 93 1012.3
20260506231551 48 202 2.0 5.0 0.00 0.24 0.00 93 1012.3
20260506230126 48 186 2.0 4.0 0.00 0.24 0.00 92 1012.2
20260506224541 48 178 2.0 5.0 0.01 0.24 0.00 92 1012.3
20260506223109 48 192 3.0 7.0 0.01 0.24 0.00 92 1012.2
20260506221602 48 209 3.0 6.0 0.01 0.24 0.00 92 1012.0
20260506220133 48 217 4.0 7.0 0.01 0.24 0.00 92 1012.0
20260506214544 49 225 2.0 6.0 0.00 0.23 0.23 92 1012.0
20260506213111 49 214 3.0 7.0 0.00 0.23 0.23 92 1011.9
20260506211541 49 213 3.0 12.0 0.00 0.23 0.23 92 1011.8
20260506210113 49 239 3.0 9.0 0.00 0.23 0.23 92 1011.7
20260506204543 49 220 3.0 8.0 0.00 0.23 0.23 92 1011.6
20260506203106 49 222 3.0 8.0 0.00 0.23 0.23 92 1011.5
20260506201539 50 216 4.0 9.0 0.01 0.23 0.23 92 1011.3
20260506200058 50 225 6.0 9.0 0.02 0.23 0.23 92 1011.2
20260506194529 50 207 7.0 15.0 0.02 0.23 0.23 92 1011.1
20260506193107 50 239 10.0 16.0 0.02 0.23 0.23 92 1011.0
20260506191526 50 187 5.0 14.0 0.02 0.22 0.22 93 1010.8
20260506190057 50 221 2.0 5.0 0.02 0.21 0.21 92 1010.6
20260506184538 50 202 3.0 5.0 0.02 0.21 0.21 92 1010.4
20260506183115 50 209 3.0 6.0 0.02 0.20 0.20 92 1010.3
20260506181539 51 205 3.0 6.0 0.02 0.20 0.20 92 1010.2
20260506180104 51 219 4.0 7.0 0.02 0.20 0.20 92 1010.1
20260506174536 51 234 3.0 8.0 0.02 0.27 0.19 92 1009.9
20260506173105 51 219 4.0 10.0 0.03 0.27 0.19 92 1009.8
20260506171556 51 223 6.0 9.0 0.03 0.26 0.18 91 1009.6
20260506170113 51 258 5.0 11.0 0.04 0.26 0.18 91 1009.5
20260506164555 52 216 3.0 8.0 0.04 0.27 0.17 91 1009.4
20260506163116 52 225 3.0 7.0 0.03 0.25 0.16 91 1009.3
20260506161552 52 223 3.0 7.0 0.02 0.24 0.15 91 1009.3
20260506160122 52 223 4.0 8.0 0.02 0.24 0.14 90 1009.2
20260506154554 53 219 4.0 9.0 0.01 0.23 0.13 90 1009.1